Weather History for Cotulla, TX

Change the Weather History Date:

Saturday, September 21, 2013

  Actual Average Record
Temperature  
Mean Temperature 80 °F -  
Max Temperature 89 °F 88 °F 100 °F (2005)
Min Temperature 72 °F 67 °F 62 °F (2002)
Cooling Degree Days 16    
Growing Degree Days 30 (Base 50)    
Moisture  
Dew Point 63 °F    
Average Humidity 61    
Maximum Humidity 79    
Minimum Humidity 37    
Precipitation  
Precipitation 0.00 in - - ()
Sea Level Pressure  
Sea Level Pressure 29.85 in    
Wind  
Wind Speed 10 mph (North)    
Max Wind Speed 16 mph    
Max Gust Speed 22 mph    
Visibility 10 miles    
Events      
Averages and records for this station are not official NWS values.
T = Trace of Precipitation, MM = Missing Value Source: NWS Daily Summary

Daily Weather History Graph

Daily Weather History Graph

Search for Another Location

Airport:

Trip Planner

Search our weather history database for the weather conditions in past years. The results will help you decide how hot, cold, wet, or windy it might be!

Date:

Astronomy

Sep. 21, 2013 Rise Set
Actual Time 7:24 AM CDT 7:34 PM CDT
Civil Twilight 7:01 AM CDT 7:57 PM CDT
Nautical Twilight 6:33 AM CDT 8:25 PM CDT
Astronomical Twilight 6:06 AM CDT 8:52 PM CDT
Moon 9:02 PM CDT 9:30 AM CDT
Length of Visible Light 12h 56m
Length of Day
12h 09m
Waning Gibbous, 94% of the Moon is Illuminated
Sep 21
Waning Gibbous
Sep 26
Last Quarter
Oct 4
New
Oct 11
First Quarter
Oct 18
Full

Hourly Weather History & Observations

Time (CDT) Temp. Heat Index Dew Point Humidity Pressure Visibility Wind Dir Wind Speed Gust Speed Precip Events Conditions
12:53 AM 75.0 °F - 68.0 °F 79% 29.84 in 10.0 mi North 11.5 mph - N/A   Overcast
1:21 AM 75.2 °F - 68.0 °F 78% 29.85 in 10.0 mi North 9.2 mph - N/A   Overcast
1:53 AM 75.0 °F - 68.0 °F 79% 29.83 in 10.0 mi North 9.2 mph - N/A   Overcast
2:53 AM 75.0 °F - 66.9 °F 76% 29.83 in 10.0 mi NNW 9.2 mph - N/A   Overcast
3:53 AM 75.0 °F - 68.0 °F 79% 29.82 in 10.0 mi NNW 10.4 mph - N/A   Overcast
4:53 AM 75.0 °F - 66.9 °F 76% 29.81 in 10.0 mi North 16.1 mph 20.7 mph N/A   Overcast
5:53 AM 73.0 °F - 64.9 °F 76% 29.82 in 10.0 mi North 9.2 mph - N/A   Clear
6:53 AM 73.9 °F - 66.0 °F 76% 29.86 in 10.0 mi NNW 9.2 mph - N/A   Overcast
7:11 AM 73.4 °F - 64.4 °F 73% 29.88 in 10.0 mi NNW 8.1 mph - N/A   Overcast
7:53 AM 73.9 °F - 64.9 °F 73% 29.88 in 10.0 mi North 8.1 mph - N/A   Overcast
8:37 AM 75.2 °F - 64.4 °F 69% 29.91 in 10.0 mi NNW 9.2 mph - N/A   Overcast
8:53 AM 75.0 °F - 64.9 °F 71% 29.89 in 10.0 mi NNW 9.2 mph - N/A   Overcast
9:53 AM 77.0 °F - 64.9 °F 66% 29.89 in 10.0 mi North 12.7 mph 21.9 mph N/A   Overcast
10:53 AM 78.1 °F - 64.0 °F 62% 29.90 in 10.0 mi North 12.7 mph 21.9 mph N/A   Overcast
11:53 AM 82.0 °F 83.4 °F 64.0 °F 54% 29.89 in 10.0 mi NNE 13.8 mph - N/A   Overcast
12:53 PM 82.9 °F 84.4 °F 64.0 °F 53% 29.88 in 10.0 mi NNE 13.8 mph - N/A   Overcast
1:53 PM 84.9 °F 86.1 °F 64.0 °F 49% 29.86 in 10.0 mi NNE 10.4 mph 17.3 mph N/A   Overcast
2:53 PM 88.0 °F 88.7 °F 63.0 °F 43% 29.83 in 10.0 mi NE 11.5 mph 20.7 mph N/A   Mostly Cloudy
3:53 PM 88.0 °F 88.7 °F 63.0 °F 43% 29.82 in 10.0 mi NNE 11.5 mph - N/A   Unknown
4:53 PM 88.0 °F 87.9 °F 61.0 °F 40% 29.81 in 10.0 mi North 12.7 mph - N/A   Scattered Clouds
5:53 PM 88.0 °F 87.9 °F 61.0 °F 40% 29.79 in 10.0 mi NNE 8.1 mph - N/A   Clear
6:53 PM 86.0 °F 84.9 °F 57.0 °F 37% 29.80 in 10.0 mi NNE 8.1 mph - N/A   Clear
7:53 PM 82.0 °F 81.6 °F 55.9 °F 41% 29.81 in 10.0 mi NNE 4.6 mph - N/A   Clear
8:53 PM 79.0 °F - 55.9 °F 45% 29.82 in 10.0 mi NNE 4.6 mph - N/A   Clear
9:53 PM 77.0 °F - 57.0 °F 50% 29.83 in 10.0 mi NNE 5.8 mph - N/A   Clear
10:53 PM 75.0 °F - 55.0 °F 50% 29.84 in 10.0 mi NNE 6.9 mph - N/A   Clear
11:53 PM 72.0 °F - 55.9 °F 57% 29.86 in 10.0 mi NE 6.9 mph - N/A   Clear